This demonstration page uses our WeatherBlox Daily Observations layout. Learn more.

Left ArrowRight Arrow

39.51506, -84.39828

Hourly Observations for February 13, 2016

Temp ( °F °C ) Dew Point ( °F °C ) Humidity (%) Winds ( mph kmh ) Pressure ( in mb ) Visibility ( mi km ) Precip ( " mm )
12:15 am 00:15 Clear 19 -7 4 -15.8 50 50 NW 12 19 30.39 1029 10 16 0.00 0.00
12:35 am 00:35 Clear 19 -7 4 -15.4 52 52 NNW 9 15 30.39 1029 10 16 0.00 0.00
12:55 am 00:55 Clear 18 -7.9 5 -15 57 57 N 10 17 30.39 1029 10 16 0.00 0.00
1:15 am 01:15 Clear 17 -8.5 6 -14.6 62 62 NNW 9 15 30.42 1030 10 16 0.00 0.00
1:35 am 01:35 Clear 17 -8.5 7 -14 65 65 NW 7 11 30.42 1030 10 16 0.00 0.00
1:55 am 01:55 Clear 17 -8.5 8 -13.6 67 67 NNW 7 11 30.42 1030 10 16 0.00 0.00
2:15 am 02:15 Clear 16 -8.7 7 -13.7 67 67 NW 8 13 30.42 1030 10 16 0.00 0.00
2:35 am 02:35 Partly Cloudy 15 -9.3 7 -14 69 69 WNW 6 9 30.42 1030 10 16 0.00 0.00
2:55 am 02:55 Clear 14 -9.8 6 -14.4 69 69 NW 9 15 30.45 1031 10 16 0.00 0.00
3:15 am 03:15 Clear 14 -9.8 5 -15.2 65 65 NW 9 15 30.45 1031 10 16 0.00 0.00
3:35 am 03:35 Clear 15 -9.6 3 -15.9 60 60 NNW 12 19 30.45 1031 10 16 0.00 0.00
3:55 am 03:55 Clear 14 -9.8 3 -16 61 61 NNW 7 11 30.48 1032 10 16 0.00 0.00
4:15 am 04:15 Clear 14 -9.8 3 -16.1 60 60 NNW 7 11 30.48 1032 10 16 0.00 0.00
4:35 am 04:35 Clear 14 -9.8 3 -16.1 60 60 NW 9 15 30.48 1032 10 16 0.00 0.00
4:55 am 04:55 Clear 14 -9.8 3 -16 61 61 NW 8 13 30.48 1032 10 16 0.00 0.00
5:15 am 05:15 Partly Cloudy 14 -9.8 4 -15.7 62 62 NW 8 13 30.50 1033 10 16 0.00 0.00
5:35 am 05:35 Mostly Cloudy with Light Snow 14 -9.8 5 -14.8 67 67 N 10 17 30.50 1033 3 4 0.00 0.00
5:55 am 05:55 Cloudy with Light Snow 14 -9.8 8 -13.6 74 74 N 8 13 30.53 1034 4 6 0.00 0.00
6:15 am 06:15 Partly Cloudy 14 -9.8 2 -16.9 57 57 N 12 19 30.53 1034 10 16 0.00 0.00
6:35 am 06:35 Clear 12 -11.2 -1 -18.3 56 56 N 5 7 30.53 1034 10 16 0.00 0.00
6:55 am 06:55 Clear 12 -11.2 0 -18 58 58 N 5 7 30.56 1035 10 16 0.00 0.00
7:15 am 07:15 Clear 11 -11.5 -1 -18.4 57 57 NNW 6 9 30.56 1035 10 16 0.00 0.00
7:35 am 07:35 Sunny 10 -12.2 -4 -19.8 53 53 NW 5 7 30.56 1035 10 16 0.00 0.00
7:55 am 07:55 Sunny 10 -12.2 -7 -21.4 47 47 NNW 3 6 30.59 1036 10 16 0.00 0.00
8:15 am 08:15 Sunny 10 -12 -7 -21.5 45 45 Calm 30.59 1036 10 16 0.00 0.00
8:35 am 08:35 Sunny 12 -11.2 -6 -21.1 44 44 NNW 6 9 30.59 1036 10 16 0.00 0.00
8:55 am 08:55 Sunny 12 -11.2 -6 -21.3 43 43 NNW 6 9 30.59 1036 10 16 0.00 0.00
9:15 am 09:15 Sunny 14 -9.8 -5 -20.8 41 41 NW 5 7 30.62 1037 10 16 0.00 0.00
9:35 am 09:35 Sunny 14 -9.8 -6 -21.2 39 39 NNW 6 9 30.62 1037 10 16 0.00 0.00
9:55 am 09:55 Sunny 14 -9.8 -7 -21.8 37 37 N 6 9 30.62 1037 10 16 0.00 0.00
10:15 am 10:15 Partly Cloudy 14 -9.8 -9 -23 33 33 N 9 15 30.62 1037 10 16 0.00 0.00
10:35 am 10:35 Partly Cloudy 14 -9.8 -9 -22.8 34 34 N 7 11 30.62 1037 10 16 0.00 0.00
10:55 am 10:55 Sunny 15 -9.2 -7 -21.8 35 35 N 7 11 30.62 1037 10 16 0.00 0.00
11:15 am 11:15 Sunny 16 -8.7 -7 -21.5 35 35 N 3 6 30.65 1038 10 16 0.00 0.00
11:35 am 11:35 Sunny 17 -8.5 -6 -21.1 36 36 WNW 7 11 30.62 1037 10 16 0.00 0.00
11:55 am 11:55 Sunny 17 -8.5 -5 -20.3 38 38 WNW 8 13 30.65 1038 10 16 0.00 0.00
12:15 pm 12:15 Sunny 17 -8.5 -6 -21.2 35 35 W 8 13 30.62 1037 10 16 0.00 0.00
12:35 pm 12:35 Sunny 17 -8.5 -6 -21.3 35 35 NNW 6 9 30.62 1037 10 16 0.00 0.00
12:55 pm 12:55 Partly Cloudy 18 -7.6 -5 -20.3 36 36 WNW 10 17 30.62 1037 10 16 0.00 0.00
1:15 pm 13:15 Partly Cloudy 19 -7 -3 -19.3 37 37 W 10 17 30.62 1037 10 16 0.00 0.00
1:35 pm 13:35 Mostly Cloudy 19 -7 -2 -18.8 39 39 WNW 10 17 30.62 1037 10 16 0.00 0.00
1:55 pm 13:55 Mostly Cloudy 19 -7 -2 -18.8 39 39 WNW 12 19 30.62 1037 10 16 0.00 0.00
2:15 pm 14:15 Mostly Cloudy 18 -7.6 -1 -18.3 42 42 W 7 11 30.59 1036 10 16 0.00 0.00
2:35 pm 14:35 Mostly Cloudy 19 -7 1 -17.1 45 45 WNW 14 22 30.59 1036 10 16 0.00 0.00
2:55 pm 14:55 Cloudy 18 -8 -1 -18.2 44 44 W 6 9 30.59 1036 10 16 0.00 0.00
3:15 pm 15:15 Cloudy 19 -7 1 -17.3 44 44 WNW 10 17 30.59 1036 10 16 0.00 0.00
3:35 pm 15:35 Cloudy 19 -7.3 0 -17.6 44 44 NNW 8 13 30.59 1036 10 16 0.00 0.00
3:55 pm 15:55 Mostly Cloudy 19 -7 -1 -18.6 39 39 WNW 13 20 30.59 1036 10 16 0.00 0.00
4:15 pm 16:15 Mostly Cloudy 19 -7 0 -17.8 42 42 NW 8 13 30.59 1036 10 16 0.00 0.00
4:35 pm 16:35 Partly Cloudy 19 -7 -1 -18.5 40 40 WNW 8 13 30.59 1036 10 16 0.00 0.00
4:55 pm 16:55 Partly Cloudy 19 -7 -1 -18.2 41 41 WNW 9 15 30.59 1036 10 16 0.00 0.00
5:15 pm 17:15 Sunny 19 -7 -2 -18.8 39 39 NNW 8 13 30.59 1036 10 16 0.00 0.00
5:35 pm 17:35 Sunny 19 -7.3 -1 -18.5 41 41 NW 5 7 30.59 1036 10 16 0.00 0.00
5:55 pm 17:55 Sunny 17 -8.5 -2 -19.1 42 42 NW 5 7 30.59 1036 10 16 0.00 0.00
6:15 pm 18:15 Clear 17 -8.5 -1 -18.6 44 44 NW 3 6 30.59 1036 10 16 0.00 0.00
6:35 pm 18:35 Clear N/A N/A N/A undefined N/A N/A N/A 0.00 0.00
6:55 pm 18:55 Clear 17 -8.5 -1 -18.1 46 46 Calm 30.59 1036 10 16 0.00 0.00
7:15 pm 19:15 Clear 14 -9.8 2 -16.6 58 58 Calm 30.59 1036 10 16 0.00 0.00
7:35 pm 19:35 Clear 14 -9.8 5 -15 66 66 Calm 30.59 1036 10 16 0.00 0.00
7:55 pm 19:55 Clear 12 -11.2 3 -16.2 67 67 Calm 30.59 1036 10 16 0.00 0.00
8:15 pm 20:15 Clear 9 -12.6 2 -16.6 72 72 Calm 30.62 1037 10 16 0.00 0.00
8:35 pm 20:35 Clear 9 -12.6 1 -17.2 69 69 NNE 5 7 30.62 1037 10 16 0.00 0.00
8:55 pm 20:55 Clear 9 -12.6 0 -17.7 66 66 NNE 3 6 30.62 1037 10 16 0.00 0.00
9:15 pm 21:15 Clear 9 -12.6 1 -17 70 70 Calm 30.62 1037 10 16 0.00 0.00
9:35 pm 21:35 Clear 9 -12.6 1 -17.1 69 69 Calm 30.62 1037 10 16 0.00 0.00
9:55 pm 21:55 Clear 9 -12.6 2 -16.6 72 72 Calm 30.62 1037 10 16 0.00 0.00
10:15 pm 22:15 Clear 9 -12.6 2 -16.4 74 74 Calm 30.62 1037 10 16 0.00 0.00
10:35 pm 22:35 Clear 9 -12.6 3 -16.1 75 75 Calm 30.62 1037 10 16 0.00 0.00
10:55 pm 22:55 Clear 9 -12.6 3 -16.1 75 75 Calm 30.62 1037 10 16 0.00 0.00
11:15 pm 23:15 Clear 9 -12.6 3 -16 76 76 Calm 30.62 1037 10 16 0.00 0.00
11:35 pm 23:35 Clear 9 -12.6 3 -16.1 75 75 N 5 7 30.59 1036 10 16 0.00 0.00
11:55 pm 23:55 Clear 7 -14 0 -17.6 74 74 N 3 6 30.62 1037 10 16 0.00 0.00

Powered by AerisWeather